This is the latest recevied weather packets stored in our database for station/object KO4FR. If no packets are shown the sender has not sent any weather packets the latest 10 day(s).
| Time | Temp. | Humidity | Pressure | Rain* | Wind** | Luminosity | Snow |
|---|---|---|---|---|---|---|---|
| 1778093107 | 20.56° C | 63% | 1012.2 hPa | 0 mm | - | - | - |
| 1778092808 | 20.56° C | 64% | 1012.2 hPa | 0 mm | - | - | - |
| 1778092507 | 20.56° C | 63% | 1012.3 hPa | 0 mm | - | - | - |
| 1778092207 | 20.56° C | 62% | 1012.4 hPa | 0 mm | - | - | - |
| 1778091907 | 20.56° C | 63% | 1012.6 hPa | 0 mm | - | - | - |
| 1778091607 | 20.56° C | 62% | 1012.9 hPa | 0 mm | - | - | - |
| 1778091308 | 20° C | 58% | 1012.9 hPa | 0 mm | - | - | - |
| 1778091007 | 20° C | 58% | 1013 hPa | 0 mm | - | - | - |
| 1778090707 | 20° C | 59% | 1013.3 hPa | 0 mm | - | - | - |
| 1778090407 | 19.44° C | 58% | 1013.3 hPa | 0 mm | - | - | - |
| 1778090107 | 19.44° C | 60% | 1013.6 hPa | 0 mm | - | - | - |
| 1778089808 | 19.44° C | 59% | 1013.5 hPa | 0 mm | - | - | - |
| 1778089507 | 19.44° C | 59% | 1013.4 hPa | 0 mm | - | - | - |
| 1778089207 | 19.44° C | 58% | 1013.4 hPa | 0 mm | - | - | - |
| 1778088907 | 18.89° C | 58% | 1013.2 hPa | 0 mm | - | - | - |
| 1778088607 | 18.89° C | 57% | 1013.1 hPa | 0 mm | - | - | - |
| 1778088308 | 18.89° C | 55% | 1013 hPa | 0 mm | - | - | - |
| 1778088007 | 18.89° C | 53% | 1013 hPa | 0 mm | - | - | - |
| 1778087707 | 18.33° C | 47% | 1013 hPa | 0 mm | - | - | - |
| 1778087407 | 18.33° C | 41% | 1013 hPa | 0.25 mm | - | - | - |
| 1778087107 | 17.78° C | 40% | 1012.9 hPa | 0.25 mm | - | - | - |
| 1778086807 | 17.78° C | 44% | 1012.9 hPa | 0.25 mm | - | - | - |
| 1778086507 | 17.78° C | 43% | 1012.9 hPa | 0.76 mm | - | - | - |
| 1778086208 | 17.78° C | 44% | 1012.9 hPa | 0.76 mm | - | - | - |
| 1778085907 | 17.78° C | 38% | 1012.9 hPa | 0.76 mm | - | - | - |
* Rain latest hour (hover to see other rain measurements)
** Current wind speed in m/s (hover to see current wind gust speed)